Location: NCO
(38.4404°N, 77.1340°W)
Time: 05:32:45
(UTC-04:00)

Hubble Space Telescope - Visible Passes

Search period start: 28 May 2018 00:00
Search period end: 07 June 2018 00:00
Orbit: 537 x 541 km, 28.5° (Epoch: 27 May)

Date Brightness Start Highest point End Pass type
(mag) Time Alt. Az. Time Alt. Az. Time Alt. Az.
31 May 3.3 03:34:02 10° SE 03:34:02 10° SE 03:34:07 10° SE visible
31 May 2.4 05:09:43 10° SW 05:12:47 20° S 05:15:51 10° SE visible
01 Jun 2.3 04:59:29 11° SW 05:02:21 20° S 05:05:26 10° SE visible
02 Jun 2.3 04:49:38 13° SW 04:51:55 20° S 04:55:00 10° SE visible
03 Jun 2.3 04:39:52 16° SW 04:41:29 20° S 04:44:31 10° SE visible
04 Jun 2.3 04:30:12 18° SSW 04:31:03 19° S 04:33:59 10° SE visible
05 Jun 2.4 04:20:41 17° S 04:20:41 17° S 04:23:23 10° SSE visible
06 Jun 2.7 04:11:21 14° S 04:11:21 14° S 04:12:43 10° SSE visible
